Showing default

STARLETTE, 7646

Orbit data source: Space-Track

STARLETTE, 7646 is a payload satellite owned by CNES (FR) in LEO that was launched on Thu, 06 Feb 1975 UTC via a DIAMANT BP.4 launch vehicle from the French Guiana (FRGUI). Payload-class satellites include a variety of spacecraft equipped with specific instruments for various scientific and technological missions. These include communications satellites like Starlink; space stations such as the ISS; scientific satellites like the Hubble; Earth observation satellites from companies like Planet Labs, Umbra, and HawkEye 360; GPS; miniature CubeSats for education and research; and military/defense satellites.

Loading next visibility...
Identifier
7646, 1975-010A
Orbit
LEO
Country
Flag of FRFR
Related business
Manufacturer
CNES
Mission
Operational spacecraft
Bus & Motor
STARLETTE, Unknown motor
Mass
48 kg wet, 48 kg dry
Launch date (UTC)
1975-02-06 (51 years ago)
Launch vehicle
DIAMANT BP.4
Launch site
French Guiana (FRGUI)
Object type
Payload
Rocket body
Debris
Shape & HBR
Unknown
Radar Cross Section
Medium (>0.1 m² and <1 m²)

Expand to show TLE details & history
Last TLE update: 12 hours ago

TLE from 12 hours ago
0 STARLETTE
1  7646U 75010A   25312.81565359 -.00000108  00000-0  29041-4 0  9991
2  7646  49.8232 254.4430 0205653  55.0113 306.9899 13.82346285564057
Epoch: 2025-11-08T19:34Z
TLE epoch observation values (Epoch: 2025-11-08T19:34:32.470Z)
Latitude
0.00001°
Longitude
-87.43213°
Altitude
867.352 km
Speed
7.465 km/s
True Right ascension
16h 57m 46s
True Declination
0° 00' 00"
Sunlit
Object was in daylight at epoch
Visualization orbit readout
Latitude
Unknown
Longitude
Unknown
Altitude
Unknown
Speed
Unknown
Apparent Right ascension
Unknown
Apparent Declination
Unknown
Sunlit
N/A
Visualization observer readout
Local Sidereal Time
03:43:50
Azimuth
Unknown
Elevation
Unknown
Doppler factor
Unknown
Orbital elements
Apogee altitude
1,107.164 km
Perigee altitude
805.493 km
Semi-major axis
7,334.465 km
Eccentricity
0.02057
Inclination
49.8232°
RAAN
254.443°
Arg. of periapsis
55.0113°
True anomaly
305.07838°
Mean anomaly
306.9899°
Eccentric anomaly
306.03708°
Mean motion
3.45534 °/min
Orbital period
104.19 mins
BSTAR
0.000029041
Loading maneuver chart data...
Computing Atmospheric mass density...
Loading historical data...
Loading historical data...
Loading historical data...
Loading historical data...
Loading historical data...
Loading historical data...
Loading historical data...
Other satellites on launch #10 in the year 1975 (1975-02-06 UTC)

Documentation

Showing up to 5 results
|